www.pogodaiklimat.ru

Погода и климат >> Архив погоды >> Австралия >> Thargomindah Airport


ПОГОДА в Thargomindah Airport

  • Прогноз погоды в Thargomindah Airport
  • Монитор погоды в Thargomindah Airport
  • Климат города

АРХИВ ПОГОДЫ в Thargomindah Airport

Время (UTC), дата Ветер
(напр.,м/с)
 
Видим.   Явления Облачность Т
(С)
Тd
(С)
f
(%)
Тe
(С)
Тes
(С)
Комфортность P
(гПа)
Po
(гПа)
Тmin
(С)
Tmax
(С)
R
(мм)
R24
(мм)
S
(см)
23 9.08 С 4 н/о н/о +15.9 -7.0 20 +15 +15 1018.6 1003.0
00 10.08 С 7 н/о н/о +21.4 -7.2 14 +20 +20 1019.1 1003.3
02 10.08 С 7 н/о н/о +26.4 -6.4 11 +24 +24 комфорт 1017.3 1001.7 +7.1
03 10.08 С 7 н/о н/о +27.8 -6.6 10 +25 +25 комфорт 1016.4 1000.6
05 10.08 СЗ 6 н/о н/о +28.8 -5.8 10 +25 +25 комфорт 1014.5 998.9
06 10.08 СЗ 6 н/о н/о +29.0 -5.7 10 +26 +26 жарко 1014.6 998.9
08 10.08 СЗ 4 н/о н/о +25.8 -5.7 12 +23 +23 комфорт 1014.8 999.2
09 10.08 С 3 н/о н/о +22.0 -5.8 15 +21 +21 комфорт 1015.4 999.7
11 10.08 С 4 н/о н/о +20.0 -5.0 18 +20 +20 1016.2 1000.6
12 10.08 С 3 н/о н/о +17.0 -5.5 21 +17 +17 1016.4 1000.6
14 10.08 С 3 н/о н/о +15.5 -5.0 24 +15 +15 1016.3 1000.7 +29.5
15 10.08 С 3 н/о н/о +15.4 -4.5 25 +15 +15 1016.6 1000.8
17 10.08 штиль 0 н/о н/о +11.6 -4.1 33 +12 +12 1015.9 1000.3
18 10.08 СВ 2 н/о н/о +9.9 -4.4 36 +9 +9 1015.7 1000.0
20 10.08 З 3 н/о н/о +12.3 -4.3 31 +12 +12 1017.2 1001.6
21 10.08 СЗ 2 н/о н/о +9.4 -4.9 36 +9 +9 1018.3 1002.5
23 10.08 ЮЗ 2 н/о н/о +16.6 -2.0 28 +17 +17 1020.3 1004.6
00 11.08 ЮВ 5 н/о н/о +20.0 -1.2 24 +20 +20 1020.6 1004.8
02 11.08 Ю 3 н/о н/о +22.2 -0.5 22 +21 +21 комфорт 1020.2 1004.5 +9.2
03 11.08 ЮВ 3 н/о н/о +23.5 -0.1 21 +22 +22 комфорт 1019.5 1003.7
05 11.08 Ю 5 н/о н/о +24.2 +0.5 21 +23 +23 комфорт 1018.5 1002.9
06 11.08 ЮЗ 5 н/о н/о +23.7 +0.1 21 +23 +23 комфорт 1018.5 1002.7
08 11.08 Ю 3 н/о н/о +21.8 +0.4 24 +21 +21 комфорт 1019.2 1003.5
09 11.08 Ю 2 н/о н/о +20.1 0.0 26 +21 +21 комфорт 1019.7 1003.9
11 11.08 ЮЗ 4 н/о н/о +18.7 -1.7 25 +19 +19 1020.8 1005.1
12 11.08 Ю 4 н/о н/о +17.6 -2.6 25 +17 +17 1021.2 1005.4
14 11.08 Ю 5 н/о н/о +16.3 -0.4 32 +15 +15 1021.6 1005.9 +25.1
15 11.08 Ю 5 н/о н/о +15.3 +0.7 37 +14 +14 1021.7 1005.9
17 11.08 ЮВ 4 н/о н/о +13.7 +1.7 44 +13 +13 1021.1 1005.4
18 11.08 В 3 н/о н/о +13.8 +2.1 45 +13 +13 1020.7 1004.9
20 11.08 ЮВ 2 н/о н/о +12.1 +2.3 51 +11 +11 1021.7 1006.0
21 11.08 ЮВ 3 н/о н/о +10.8 +1.9 54 +9 +9 1022.8 1007.0
23 11.08 ЮВ 5 н/о н/о +15.3 +2.1 41 +14 +14 1024.0 1008.3
00 12.08 В 6 н/о н/о +17.5 +2.3 36 +17 +17 1024.4 1008.5
02 12.08 В 5 н/о н/о +19.9 +1.4 29 +20 +20 1022.7 1007.0 +10.2
03 12.08 ЮВ 4 н/о н/о +21.3 +1.0 26 +21 +21 комфорт 1021.7 1005.9
05 12.08 ЮВ 2 н/о н/о +22.9 +0.1 22 +22 +22 комфорт 1020.6 1004.9
06 12.08 В 2 н/о н/о +23.4 -0.1 21 +22 +22 комфорт 1020.3 1004.5
08 12.08 ЮВ 2 н/о н/о +21.9 -0.1 23 +21 +21 комфорт 1020.5 1004.8
09 12.08 ЮВ 2 н/о н/о +18.4 -0.9 27 +19 +19 1021.2 1005.4
11 12.08 ЮВ 3 н/о н/о +15.9 -0.3 33 +16 +16 1021.8 1006.1
12 12.08 В 3 н/о н/о +14.9 -2.1 31 +15 +15 1021.8 1006.0
14 12.08 ЮВ 3 н/о н/о +13.8 -2.6 32 +13 +13 1022.0 1006.3 +24.1
15 12.08 ЮВ 2 н/о н/о +12.3 -2.3 36 +12 +12 1021.8 1006.0
17 12.08 В 2 н/о н/о +9.2 -2.7 43 +8 +8 1021.1 1005.4
18 12.08 В 2 н/о н/о +10.3 -1.7 43 +9 +9 1021.2 1005.4
20 12.08 ЮВ 2 н/о н/о +7.5 -2.5 49 +6 +6 1021.9 1006.2
21 12.08 штиль 0 н/о н/о +13.5 -3.6 30 +14 +14 1022.8 1007.0
23 12.08 СВ 3 н/о н/о +15.9 -1.2 31 +16 +16 1023.5 1007.8
00 13.08 СВ 5 н/о н/о +19.8 -1.3 24 +20 +20 1023.8 1007.9
02 13.08 С 3 н/о н/о +25.2 0.0 19 +24 +24 комфорт 1022.2 1006.5 +6.9
03 13.08 З 4 н/о н/о +27.2 -1.7 15 +25 +25 комфорт 1021.1 1005.3
05 13.08 З 6 н/о н/о +27.8 -2.1 14 +25 +25 комфорт 1019.5 1003.8
06 13.08 ЮЗ 5 н/о н/о +28.0 -3.0 13 +25 +25 комфорт 1019.3 1003.5
08 13.08 Ю 5 н/о н/о +25.0 -3.4 15 +23 +23 комфорт 1020.0 1004.3
09 13.08 Ю 3 н/о н/о +22.0 -2.7 19 +21 +21 комфорт 1020.5 1004.7
11 13.08 ЮВ 3 н/о н/о +19.9 -3.0 21 +20 +20 1021.2 1005.5
12 13.08 В 2 н/о н/о +17.0 -3.1 25 +17 +17 1021.4 1005.6
14 13.08 СВ 2 н/о н/о +14.7 -3.6 28 +15 +15 1021.0 1005.3 +28.8
15 13.08 В 2 н/о н/о +13.5 -3.7 30 +13 +13 1020.6 1004.8
17 13.08 СВ 2 н/о н/о +12.9 -3.0 33 +13 +13 1019.3 1003.6
18 13.08 С 3 н/о н/о +13.1 -3.6 31 +12 +12 1019.6 1003.8
20 13.08 СВ 2 н/о н/о +14.3 -3.5 29 +15 +15 1019.8 1004.1
21 13.08 СВ 3 н/о н/о +13.0 -3.3 32 +12 +12 1020.4 1004.6
23 13.08 С 3 н/о н/о +20.1 -2.9 21 +20 +20 1021.3 1005.6
00 14.08 СВ 4 н/о н/о +22.8 -2.7 18 +21 +21 комфорт 1020.1 1004.3
02 14.08 СЗ 3 н/о н/о +27.8 -2.1 14 +25 +25 комфорт 1019.6 1003.9 +12.8
03 14.08 СВ 2 н/о н/о +29.0 -2.2 13 +26 +26 жарко 1018.0 1002.2
05 14.08 СЗ 4 н/о н/о +30.8 -1.9 12 +28 +28 жарко 1016.3 1000.7
06 14.08 С 1 н/о н/о +31.1 -1.6 12 +28 +28 жарко 1015.7 1000.0
08 14.08 Ю 2 н/о н/о +28.2 -2.8 13 +25 +25 комфорт 1016.2 1000.6
09 14.08 штиль 0 н/о н/о +23.5 -2.9 17 +22 +22 комфорт 1016.9 1001.1
11 14.08 СВ 2 н/о н/о +20.4 -0.8 24 +21 +21 комфорт 1017.3 1001.7
12 14.08 С 3 н/о н/о +19.1 -1.4 25 +19 +19 1017.4 1001.6
14 14.08 С 3 н/о н/о +18.6 -1.8 25 +19 +19 1016.5 1000.9 +31.4
15 14.08 С 3 н/о н/о +18.3 -1.5 26 +18 +18 1016.3 1000.5
17 14.08 С 3 н/о н/о +16.6 -1.5 29 +17 +17 1015.0 999.4
18 14.08 С 1 н/о н/о +15.2 -1.8 31 +16 +16 1015.1 999.4
20 14.08 СВ 2 н/о н/о +13.5 -1.3 36 +13 +13 1015.4 999.8
21 14.08 СВ 2 н/о н/о +12.9 -1.4 37 +13 +13 1016.0 1000.2
23 14.08 С 5 н/о н/о +23.1 -1.1 20 +22 +22 комфорт 1016.0 1000.4
00 15.08 С 9 н/о н/о +27.6 -2.3 14 +25 +25 комфорт 1015.7 1000.0
02 15.08 С 9 н/о н/о +31.2 -4.0 10 +28 +28 жарко 1013.6 998.0 +12.9
03 15.08 СЗ 8 н/о н/о +32.2 -3.2 10 +28 +28 жарко 1012.0 996.4
05 15.08 СЗ 8 н/о н/о +33.0 -4.0 9 +29 +29 жарко 1009.9 994.4
06 15.08 СЗ 8 н/о н/о +33.0 -4.0 9 +29 +29 жарко 1009.3 993.7
08 15.08 СЗ 7 н/о н/о +30.6 -3.2 11 +27 +27 жарко 1009.1 993.6
09 15.08 СЗ 4 н/о н/о +27.7 -4.3 12 +25 +25 комфорт 1009.2 993.6
11 15.08 С 3 н/о н/о +23.0 -5.0 15 +21 +21 комфорт 1010.0 994.5
12 15.08 С 4 н/о н/о +21.8 -4.3 17 +21 +21 комфорт 1010.2 994.6
14 15.08 С 4 н/о н/о +21.5 -2.4 20 +21 +21 комфорт 1009.5 994.0 +33.6
15 15.08 СЗ 4 н/о н/о +20.8 -3.0 20 +21 +21 комфорт 1009.5 993.9
17 15.08 С 4 н/о н/о +19.2 -2.4 23 +19 +19 1008.4 992.9
18 15.08 С 4 н/о н/о +19.0 -2.6 23 +19 +19 1007.9 992.3
20 15.08 С 3 н/о н/о +15.9 -2.6 28 +16 +16 1008.4 992.9
21 15.08 З 4 н/о н/о +19.5 -2.2 23 +20 +20 1010.6 995.0
23 15.08 Ю 7 н/о н/о +20.1 +3.3 33 +20 +20 1012.3 996.8
00 16.08 Ю 6 н/о н/о +22.0 +3.6 30 +22 +22 комфорт 1012.6 997.0
02 16.08 Ю 4 н/о н/о +24.2 +7.4 34 +24 +24 комфорт 1011.9 996.4 +15.9
03 16.08 Ю 4 н/о н/о +25.1 +7.7 33 +25 +25 комфорт 1011.1 995.5
05 16.08 Ю 4 н/о н/о +26.4 +7.9 31 +26 +26 жарко 1010.2 994.7
06 16.08 ЮЗ 4 н/о н/о +26.5 +8.0 31 +26 +26 жарко 1010.3 994.7
08 16.08 З 3 н/о н/о +24.7 +6.4 31 +25 +25 комфорт 1010.9 995.4
09 16.08 ЮЗ 3 н/о н/о +22.4 +5.8 34 +23 +23 комфорт 1011.6 996.0
11 16.08 СЗ 2 н/о н/о +19.7 +5.7 40 +21 +21 комфорт 1012.3 996.8
12 16.08 З 3 н/о н/о +18.4 +5.3 42 +19 +19 1013.0 997.4
14 16.08 ЮЗ 5 н/о н/о +18.3 +0.4 30 +18 +18 1013.6 998.0 +27.3
15 16.08 ЮЗ 5 н/о н/о +17.6 -1.6 27 +17 +17 1013.9 998.2
17 16.08 ЮЗ 3 н/о н/о +14.6 -1.9 32 +14 +14 1013.8 998.2
18 16.08 З 3 н/о н/о +13.2 -1.9 35 +13 +13 1013.9 998.2
20 16.08 З 2 н/о н/о +11.1 -1.3 42 +10 +10 1015.0 999.4
21 16.08 З 2 н/о н/о +10.7 -1.7 42 +10 +10 1015.9 1000.1

 

Местоположение метеостанции Thargomindah Airport (Квинсленд, Австралия): широта -27.98 долгота 143.81 высота над уровнем моря 132 м.

В архиве по умолчанию представлена погода в Thargomindah Airport за последнюю неделю. Архивные данные за месяц целиком и за предыдущие месяцы, начиная с января 2011 года, Вы можете получить, выбрав интересующий диапазон дат из раскрывающегося списка и нажав кнопку "Ввод!".

Внимание! Время в таблицах - всемирное. Для получения местного времени необходимо прибавить поправку, которая в Thargomindah Airport равна 10 ч.

Смотрите также архив погоды в соседних городах и на ближайших метеорологических станциях:

Погода в Ballera Gas Field (Квинсленд, Австралия) (206 км)
Погода в Tibooburra Airport (Новый Южный Уэльс, Австралия) (237 км)
Погода в Charleville Aero (Квинсленд, Австралия) (299 км)
Погода в Bourke Airport Aws (Новый Южный Уэльс, Австралия) (309 км)
Погода в White Cliffs Aws (Новый Южный Уэльс, Австралия) (327 км)
Погода в Moomba Airport (Южная Австралия, Австралия) (355 км)
Погода в Wilcannia Aerodrome (Новый Южный Уэльс, Австралия) (396 км)
Погода в Fowlers Gap Aws (Новый Южный Уэльс, Австралия) (401 км)
Погода в Blackall Airport (Квинсленд, Австралия) (428 км)
Погода в Cobar Mo (Новый Южный Уэльс, Австралия) (435 км)

Пояснения к столбцам:

Ветер - указаны скорость ветра в м/с - средняя за 10 мин, порывы в срок и между сроками (в фигурных скобках) и направление, откуда дует ветер: С - северный, СВ - северо-восточный, В - восточный, ЮВ - юго-восточный, Ю - южный, ЮЗ - юго-западный, З - западный, СЗ - северо-западный.
Видимость - горизонтальная дальность видимости в метрах или километрах. При видимости от 1 до 10 км при отсутствии осадков обычно наблюдается дымка, при ухудшении видимости до 1 км и менее - туман. В сухую погоду видимость может ухудшаться дымом, пылью или мглою.
Явления - указаны атмосферные явления, наблюдавшиеся в срок или в последний час перед сроком; фигурными скобками обозначены явления, наблюдавшиеся между сроками (за 1-3 часа до срока); квадратными скобками обозначены град или гололедные отложения с указанием их диаметра в мм.
Облачность - указаны через наклонную черту общая и нижняя облачность в баллах и высота нижней границы облаков в метрах; квадратными скобками обозначены формы облаков: Ci - перистые, Cs - перисто-слоистые, Cc - перисто-кучевые, Ac - высококучевые, As - высокослоистые, Sc - слоисто-кучевые, Ns - слоисто-дождевые, Cu - кучевые, Cb - кучево-дождевые. Подробнее классификацию облаков см. в Атласе облаков (PDF).
T - Температура воздуха - температура, измеренная на высоте 2 м над землей.
Td - Температура точки росы - температура, при понижении до которой содержащийся в воздухе водяной пар достигнет насыщения.
f - Относительная влажность воздуха - влажноcть воздуха, измеренная на высоте 2 м над землей.
Te - Эффективная температура - температура, которую ощущает одетый по сезону человек в тени. Характеристика душности погоды. При расчете учитывается влияние влажности воздуха и скорости ветра на теплоощущения человека.
Tes - Эффективная температура на солнце - температура, которую ощущает человек, с поправкой на солнечный нагрев. Характеристика знойности погоды. Зависит от высоты солнца над горизонтом, облачности и скорости ветра. Ночью, в пасмурную погоду, а также при ветре 12 м/с и более поправка равна нулю.
P - Атмосферное давление - приведенное к уровню моря атмосферное давление.
Po - Атмосферное давление - измеренное на уровне метеостанции атмосферное давление.
Tmin - Минимальная температура - минимум температуры воздуха на высоте 2 м над землей.
Tmax - Максимальная температура - максимум температуры воздуха на высоте 2 м над землей.
R - Количество осадков - Количество выпавших осадков за период времени, мм. При наведении курсора мыши на число - период времени, за который выпало указанное количество осадков.
R24 - Количество осадков - Количество выпавших осадков за 24 часа, мм.
S - Снежный покров - Высота снежного покрова, см. При наведении курсора мыши на число - состояние снежного покрова и степень покрытия местности в баллах.